Regional Weather Roundup
Issued by NWS Albany, NY

Home | Current Version | Previous Version | Text Only | Print | Product List | Glossary On
Versions: 1 2 3 4 5 6 7 8 9 10 11 12 13 14 15 16 17 18 19 20 21 22 23 24 25 26 27 28 29 30 31 32 33 34 35 36 37 38 39 40 41 42 43 44 45 46 47 48 49 50
000
ASUS41 KALY 031610
RWRALY

NEW YORK STATE HOURLY WEATHER ROUNDUP
NATIONAL WEATHER SERVICE ALBANY NY
1200 PM EDT SUN MAY 03 2015

NOTE: "FAIR" INDICATES FEW OR NO CLOUDS BELOW 12,000 FEET WITH NO
SIGNIFICANT WEATHER AND/OR NO OBSTRUCTIONS TO VISIBILITY.

NYZ032-033-038>043-046>054-057>066-NYZ062>081-031700-
EAST


CITY           SKY/WX    TMP DP  RH WIND       PRES   REMARKS
ALBANY         MOSUNNY   74  42  31 NE5       30.05F
GLENS FALLS    SUNNY     68  44  42 S3        30.04F
POUGHKEEPSIE   SUNNY     74  42  31 CALM      30.06F
NEWBURGH       MOSUNNY   72  43  35 CALM      30.08F
MONTGOMERY     SUNNY     75  43  31 VRB3      30.06F
WHITE PLAINS   MOSUNNY   72  40  31 W5        30.08S
ISLIP          PTSUNNY   63  45  51 S8        30.09S
NEW YORK CITY  MOSUNNY   71  39  31 CALM      30.08F
CENTRAL PARK   SUNNY     73  38  27 W6        30.11F
$$

NYZ005>009-017-018-044>046-055-056-031700-
CENTRAL


CITY           SKY/WX    TMP DP  RH WIND       PRES   REMARKS
FULTON         PTSUNNY   67  38  34 CALM      30.07S
SYRACUSE       PTSUNNY   71  40  32 W9        30.07S
ROME           SUNNY     69  40  34 W8        30.08S
ELMIRA         MOSUNNY   74  41  30 W8        30.08S
BINGHAMTON     SUNNY     69  37  30 W7        30.10S
MONTICELLO     SUNNY     70  37  30 W8G16     30.11F
$$

NYZ026>034-041>043-031700-
NORTH


CITY           SKY/WX    TMP DP  RH WIND       PRES   REMARKS
WATERTOWN      SUNNY     66  45  46 W9        30.06S
FORT DRUM      NOT AVBL
MASSENA        SUNNY     73  41  31 SW9       30.03S
SARANAC LAKE   MOSUNNY   69  34  27 S12       30.03S
PLATTSBURGH    LGT RAIN  61  43  51 SE13      30.00S
$$

NYZ001>004-010>016-019>021-031700-
WEST


CITY           SKY/WX    TMP DP  RH WIND       PRES   REMARKS
NIAGARA FALLS  MOSUNNY   70  42  36 SW14      30.06S
BUFFALO        MOSUNNY   67  40  37 SW16      30.08S
DUNKIRK        SUNNY     68  41  37 W15G21    30.10R
JAMESTOWN      SUNNY     68  39  34 W12       30.12S
WELLSVILLE     MOSUNNY   70  32  24 VRB7G17   30.13S
ROCHESTER      PTSUNNY   74  41  30 W12       30.07S
PENN YAN       SUNNY     75  38  26 NW12G20   30.08S
$$

             KEY
       WCI = WIND CHILL INDEX
       VSB = VISIBILITY
       HX  = HEAT INDEX
$$


USA.gov is the U.S. government's official web portal to all federal, state and local government web resources and services.